Regional Weather Roundup
Issued by NWS

Home | Current Version | Previous Version | Text Only | Print | Product List | Glossary Off
Versions: 1 2 3 4 5 6 7 8 9 10 11 12 13 14 15 16 17 18 19 20 21 22 23 24 25 26 27 28 29 30 31 32 33 34 35 36 37 38 39 40 41 42 43 44 45 46 47 48 49 50

000
ASUS43 KLOT 302012
RWRIL

ILLINOIS REGIONAL WEATHER ROUNDUP
NATIONAL WEATHER SERVICE CHICAGO/ROMEOVILLE IL
300 PM CDT TUE JUN 30 2015

NOTE: "FAIR" INDICATES FEW OR NO CLOUDS BELOW 12,000 FEET WITH NO
SIGNIFICANT WEATHER AND/OR OBSTRUCTIONS TO VISIBILITY.

* THESE STATIONS ARE NOT UNDER NWS QUALITY CONTROL. THEY ALSO MAY NOT
  REPORT WEATHER SUCH AS PRECIPITATION OR FOG.

ILZ001-002-007-009-015-016-024-302100-
NORTHWEST ILLINOIS

CITY           SKY/WX    TMP DP  RH WIND       PRES   REMARKS
MOLINE         PTSUNNY   82  62  50 NW8       29.85R HX  83
STERLING*      PTSUNNY   81  64  57 NW10      29.84S HX  82
SAVANNA*       MOSUNNY   78  61  55 N12       29.85R HX  80
$$

ILZ003-004-008-010-011-017-018-302100-
NORTH CENTRAL ILLINOIS

CITY           SKY/WX    TMP DP  RH WIND       PRES   REMARKS
ROCKFORD       PTSUNNY   76  60  57 N10       29.86S
FREEPORT*      MOSUNNY   73  61  66 N9        29.87S
ROCHELLE*      MOSUNNY   74  62  66 NW9       29.85R
DE KALB*       PTSUNNY   73  61  67 NW9       29.85S
PERU*          PTSUNNY   78  62  56 N8        29.84S HX  80
$$

ILZ005-006-012>014-019>023-302100-
NORTHEAST ILLINOIS

CITY           SKY/WX    TMP DP  RH WIND       PRES   REMARKS
CHICAGO-OHARE  PTSUNNY   76  59  55 NW9       29.81S
CHICAGO-MIDWAY PTSUNNY   78  59  51 N12       29.81R
AURORA         MOSUNNY   75  61  61 NW12      29.84R
LANSING*       SUNNY     73  59  61 NE9       29.83R
JOLIET*        MOSUNNY   78  63  60 W6        29.82S
WAUKEGAN         N/A    N/A N/A N/A MISG      29.82R
DUPAGE AIRPORT PTSUNNY   75  60  59 N10G17    29.82S
KANKAKEE*      SUNNY     78  64  61 W10       29.83R HX  80
WHEELING       PTSUNNY   75  58  55 N13G18    29.83S
MORRIS*        PTSUNNY   76  64  65 NW5       29.81S
ROMEOVILLE*    PTSUNNY   76  62  59 NW8       29.82S
NORTHERLY ISL    N/A     68  61  78 E6          N/A
$$

LMZ740>746-302100-
SOUTHERN LAKE MICHIGAN

STATION/POSITION SKY/WX   TEMP    WIND        PRES    VSBY  WAVE
                          AIR SEA DIR/SP/G                  HT/PER
                          (F)     (DEG/KT/KT) (MB)    (MI)  (FT/S)
HARRISON CRIB              64      50/ 10/ 12   N/A
BURNHAM HARBOR             67     100/  4/  9   N/A
CALUMET HARBOR             67      10/ 11/ 13   N/A
BURNS HARBOR               66      50/ 14/ 14 1010.5R
MICHIGAN CITY              62      10/ 12/ 13   N/A
MICHIGAN CITY 6N           63 65   80/  6/  8   N/A           1/ 2
ST. JOSEPH                 64 66                N/A           1/ 3
$$

ILZ025>027-034>036-040-047-049-050-058-095>099-302100-
WEST-CENTRAL ILLINOIS

CITY           SKY/WX    TMP DP  RH WIND       PRES   REMARKS
QUINCY         SUNNY     81  67  62 NW12      29.87S HX  83
GALESBURG*     MOSUNNY   80  65  60 N7        29.86S HX  82
MACOMB*        PTSUNNY   80  67  64 NW9       29.87S HX  83
JACKSONVILLE*  SUNNY     83  69  63 W12G17    29.85S HX  86
PITTSFIELD*    SUNNY     82  66  58 W10       29.88R HX  84
$$

ILZ028>032-037-038-041>044-048-051>054-059>061-302100-
CENTRAL ILLINOIS

CITY           SKY/WX    TMP DP  RH WIND       PRES   REMARKS
PONTIAC        MOSUNNY   80  66  63 NW8       29.84F HX  82
BLOOMINGTON    MOSUNNY   81  64  55 W8        29.85F HX  82
DECATUR        PTSUNNY   82  66  58 W12       29.83F HX  84
PEORIA         MOSUNNY   83  65  54 N7        29.84S HX  85
LACON*         SUNNY     79  63  57 N7        29.83S HX  81
LINCOLN*       SUNNY     83  67  58 NW5       29.83F HX  86
SPRINGFIELD    MOSUNNY   84  68  58 W15       29.84S HX  87
TAYLORVILLE    MOSUNNY   81  68  65 W8        29.84F HX  83
$$

ILZ033-039-045-046-055>057-062-063-302100-
EAST-CENTRAL ILLINOIS

CITY           SKY/WX    TMP DP  RH WIND       PRES   REMARKS
CHAMPAIGN      PTSUNNY   80  67  64 W7G18     29.84S HX  82
DANVILLE*      PTSUNNY   78  66  65 W8        29.80S HAZE    HX  80
RANTOUL*       MOSUNNY   82  66  58 W9        29.84S HX  84
MATTOON        MOSUNNY   80  67  64 W8        29.83F HX  82
PARIS*         SUNNY     82  66  59 W12G17    29.83F HX  84
$$

ILZ079-100>102-302100-
SOUTHWEST ILLINOIS

CITY           SKY/WX    TMP DP  RH WIND       PRES   REMARKS
ALTON          CLOUDY    82  72  69 SW9       29.87F HX  87
BELLEVILLE     MOSUNNY   83  69  61 W9        29.86F HX  87
CAHOKIA*       SUNNY     85  65  51 W8        29.87F HX  86
SPARTA*        SUNNY     83  66  56 W8        29.90S HX  85
$$

ILZ064>066-069>071-074>076-080>082-084>086-088>090-092>094-302100-
SOUTH-CENTRAL ILLINOIS

CITY           SKY/WX    TMP DP  RH WIND       PRES   REMARKS
CARBONDALE     SUNNY     83  65  54 W7        29.89S HX  85
CAIRO*         SUNNY     86  67  52 W6        29.89S HX  88
EFFINGHAM*     MOSUNNY   83  62  48 SW13G18   29.87S HX  84
MARION         CLOUDY    82  66  57 W9        29.90  HX  85
MT. VERNON     SUNNY     82  66  57 W6        29.88S HX  85
CENTRALIA*     SUNNY     82  65  56 W9        29.87F HX  83
SALEM*         SUNNY     83  66  55 W8G17     29.87F HX  85
METROPOLIS*    SUNNY     85  68  56 W8        29.90S HX  88
$$

ILZ067-068-072-073-078-083-087-091-302100-
SOUTHEAST ILLINOIS

CITY           SKY/WX    TMP DP  RH WIND       PRES   REMARKS
LAWRENCEVILLE  SUNNY     83  67  58 W10       29.84S HX  85
FLORA*         SUNNY     82  66  59 W10       29.86F HX  84
FAIRFIELD*     MOSUNNY   82  68  63 W9        29.85F HX  85
HARRISBURG*    SUNNY     82  67  61 W10       29.89S HX  84
ROBINSON*      MOSUNNY   83  66  57 W8        29.84S HX  85
CARMI*         MOSUNNY   83  62  49 W9        29.87S HX  83
$$

ABBREVIATIONS USED IN REMARKS
   TC - TEMPERATURE IN CELSIUS
  WCI - WIND CHILL INDEX
   HX - HEAT INDEX
  VSB - VISIBILITY
$$




USA.gov is the U.S. government's official web portal to all federal, state and local government web resources and services.